This is the latest recevied weather packets stored in our database for station/object N4JTC. If no packets are shown the sender has not sent any weather packets the latest 10 day(s).
| Time | Temp. | Humidity | Pressure | Rain* | Wind** | Luminosity | Snow |
|---|---|---|---|---|---|---|---|
| 1777982403 | 16.11° C | 86% | 1016.4 hPa | 0 mm | - | 83 W/m² | - |
| 1777982103 | 15.56° C | 87% | 1016.3 hPa | 0 mm | - | 72 W/m² | - |
| 1777981502 | 15° C | 87% | 1016.3 hPa | 0 mm | - | 56 W/m² | - |
| 1777981203 | 15° C | 88% | 1016.2 hPa | 0 mm | - | 46 W/m² | - |
| 1777980903 | 15° C | 88% | 1016.2 hPa | 0 mm | - | 36 W/m² | - |
| 1777980603 | 15° C | 88% | 1016.3 hPa | 0 mm | - | 29 W/m² | - |
| 1777980303 | 15° C | 88% | 1016.2 hPa | 0 mm | - | 24 W/m² | - |
| 1777979703 | 14.44° C | 89% | 1015.9 hPa | 0 mm | - | 14 W/m² | - |
| 1777979104 | 14.44° C | 90% | 1015.9 hPa | 0 mm | - | 6 W/m² | - |
| 1777978803 | 14.44° C | 89% | 1015.9 hPa | 0 mm | - | 3 W/m² | - |
| 1777978503 | 14.44° C | 90% | 1015.6 hPa | 0 mm | - | 0 W/m² | - |
| 1777977903 | 14.44° C | 89% | 1015.8 hPa | 0 mm | - | 0 W/m² | - |
| 1777977603 | 14.44° C | 89% | 1015.6 hPa | 0 mm | - | 0 W/m² | - |
| 1777977303 | 15° C | 89% | 1015.8 hPa | 0 mm | - | 0 W/m² | - |
| 1777977004 | 15° C | 89% | 1015.6 hPa | 0 mm | - | 0 W/m² | - |
| 1777976702 | 15° C | 89% | 1016.1 hPa | 0 mm | - | 0 W/m² | - |
| 1777976403 | 15° C | 89% | 1015.6 hPa | 0 mm | - | 0 W/m² | - |
| 1777976103 | 15° C | 89% | 1015.4 hPa | 0 mm | - | 0 W/m² | - |
| 1777975803 | 14.44° C | 90% | 1015.9 hPa | 0 mm | - | 0 W/m² | - |
| 1777975503 | 14.44° C | 90% | 1015.7 hPa | 0 mm | - | 0 W/m² | - |
| 1777974903 | 14.44° C | 90% | 1015.7 hPa | 0 mm | - | 0 W/m² | - |
| 1777974603 | 14.44° C | 90% | 1015.8 hPa | 0 mm | - | 0 W/m² | - |
| 1777974303 | 13.89° C | 90% | 1015.9 hPa | 0 mm | - | 0 W/m² | - |
| 1777973702 | 13.89° C | 90% | 1015.4 hPa | 0 mm | - | 0 W/m² | - |
| 1777973404 | 13.89° C | 91% | 1015.2 hPa | 0 mm | - | 0 W/m² | - |
* Rain latest hour (hover to see other rain measurements)
** Current wind speed in m/s (hover to see current wind gust speed)